Weather History for Minden, LA

Change the Weather History Date:

Monday, September 30, 2013

  Actual Average (KBAD) Record (KBAD)
Temperature  
Mean Temperature 77 °F -  
Max Temperature 83 °F 79 °F 91 °F (1998)
Min Temperature 72 °F 58 °F 50 °F (1996)
Cooling Degree Days 12    
Growing Degree Days 27 (Base 50)    
Moisture  
Dew Point 70 °F    
Average Humidity 84    
Maximum Humidity 93    
Minimum Humidity 66    
Precipitation  
Precipitation 0.01 in - - ()
Sea Level Pressure  
Sea Level Pressure 29.91 in    
Wind  
Wind Speed 3 mph (SSE)    
Max Wind Speed 12 mph    
Max Gust Speed 16 mph    
Visibility 8 miles    
Events      
Averages and records for this station are not official NWS values.
T = Trace of Precipitation, MM = Missing Value Source: NWS Daily Summary

Daily Weather History Graph

Daily Weather History Graph

Search for Another Location

Airport:

Trip Planner

Search our weather history database for the weather conditions in past years. The results will help you decide how hot, cold, wet, or windy it might be!

Date:

Astronomy

Sep. 30, 2013 Rise Set
Actual Time 7:06 AM CDT 6:58 PM CDT
Civil Twilight 6:42 AM CDT 7:23 PM CDT
Nautical Twilight 6:13 AM CDT 7:51 PM CDT
Astronomical Twilight 5:45 AM CDT 8:20 PM CDT
Moon 2:56 AM CDT (9/30) 4:19 PM CDT (9/30)
Length of Visible Light 12h 41m
Length of Day
11h 52m
Waning Crescent, 19% of the Moon is Illuminated
Sep 30
Waning Crescent
Oct 4
New
Oct 11
First Quarter
Oct 18
Full
Oct 26
Last Quarter

Hourly Weather History & Observations

Time (CDT) Temp. Heat Index Dew Point Humidity Pressure Visibility Wind Dir Wind Speed Gust Speed Precip Events Conditions
12:15 AM 72.7 °F - 70.2 °F 92% 29.93 in 7.0 mi SSE 3.5 mph - N/A   Overcast
12:35 AM 72.7 °F - 70.2 °F 92% 29.93 in 5.0 mi Calm Calm - N/A   Overcast
12:55 AM 72.5 °F - 70.2 °F 92% 29.92 in 7.0 mi Calm Calm - N/A   Overcast
1:15 AM 72.7 °F - 70.2 °F 92% 29.92 in 7.0 mi Calm Calm - N/A   Overcast
1:35 AM 72.5 °F - 70.2 °F 92% 29.92 in 5.0 mi SSE 3.5 mph - N/A   Overcast
1:55 AM 72.5 °F - 70.2 °F 92% 29.92 in 7.0 mi Calm Calm - N/A   Overcast
2:15 AM 72.7 °F - 70.3 °F 92% 29.92 in 5.0 mi SSE 3.5 mph - N/A   Overcast
2:35 AM 72.5 °F - 70.2 °F 92% 29.92 in 5.0 mi Calm Calm - 0.01 in   Overcast
2:55 AM 72.7 °F - 70.3 °F 92% 29.91 in 7.0 mi Calm Calm - 0.01 in   Overcast
3:15 AM 72.7 °F - 70.3 °F 92% 29.91 in 7.0 mi Calm Calm - N/A   Overcast
3:35 AM 72.5 °F - 70.2 °F 92% 29.91 in 7.0 mi Calm Calm - N/A   Overcast
3:55 AM 72.5 °F - 70.2 °F 92% 29.91 in 7.0 mi Calm Calm - N/A   Overcast
4:15 AM 72.5 °F - 70.2 °F 92% 29.90 in 7.0 mi SSE 3.5 mph - N/A   Overcast
4:35 AM 72.5 °F - 70.2 °F 92% 29.91 in 10.0 mi Calm Calm - N/A   Overcast
4:55 AM 72.5 °F - 70.0 °F 92% 29.91 in 10.0 mi SSE 3.5 mph - N/A   Overcast
5:15 AM 72.3 °F - 69.8 °F 92% 29.91 in 7.0 mi SE 3.5 mph - N/A   Overcast
5:35 AM 72.3 °F - 69.8 °F 92% 29.91 in 7.0 mi Calm Calm - N/A   Overcast
5:55 AM 72.1 °F - 69.8 °F 92% 29.91 in 7.0 mi Calm Calm - N/A   Overcast
6:15 AM 72.0 °F - 69.8 °F 93% 29.91 in 7.0 mi SE 3.5 mph - N/A   Overcast
6:35 AM 72.1 °F - 69.8 °F 92% 29.91 in 7.0 mi South 3.5 mph - N/A   Overcast
6:55 AM 72.0 °F - 69.8 °F 93% 29.91 in 7.0 mi Calm Calm - N/A   Overcast
7:15 AM 72.0 °F - 69.8 °F 93% 29.91 in 7.0 mi Calm Calm - N/A   Overcast
7:35 AM 72.1 °F - 69.8 °F 92% 29.91 in 7.0 mi ESE 3.5 mph - N/A   Overcast
7:55 AM 72.1 °F - 69.8 °F 92% 29.92 in 5.0 mi ESE 3.5 mph - N/A   Overcast
8:15 AM 72.1 °F - 69.4 °F 91% 29.92 in 5.0 mi SE 3.5 mph - N/A   Overcast
8:35 AM 72.5 °F - 69.8 °F 91% 29.92 in 5.0 mi Calm Calm - N/A   Overcast
8:55 AM 72.5 °F - 69.6 °F 91% 29.93 in 5.0 mi SSE 4.6 mph - N/A   Overcast
9:15 AM 72.7 °F - 69.8 °F 91% 29.93 in 2.5 mi SSE 3.5 mph - N/A   Overcast
9:35 AM 73.4 °F - 70.5 °F 91% 29.94 in 3.0 mi SSE 3.5 mph - N/A   Overcast
9:55 AM 74.3 °F - 70.7 °F 88% 29.94 in 5.0 mi SSE 3.5 mph - N/A   Overcast
10:15 AM 74.5 °F - 70.5 °F 87% 29.94 in 7.0 mi South 5.8 mph - N/A   Overcast
10:35 AM 74.8 °F - 70.3 °F 86% 29.94 in 7.0 mi SSW 5.8 mph - N/A   Overcast
10:55 AM 75.6 °F - 70.3 °F 84% 29.94 in 10.0 mi SSW 6.9 mph - N/A   Overcast
11:15 AM 76.5 °F - 70.9 °F 83% 29.94 in 10.0 mi South 3.5 mph - N/A   Overcast
11:35 AM 76.6 °F - 70.5 °F 81% 29.93 in 7.0 mi SSE 5.8 mph - N/A   Overcast
11:55 AM 79.0 °F - 70.7 °F 76% 29.93 in 10.0 mi SSE 5.8 mph - N/A   Overcast
12:15 PM 80.6 °F 84.4 °F 71.1 °F 73% 29.93 in 10.0 mi South 3.5 mph - N/A   Overcast
12:35 PM 82.0 °F 86.3 °F 70.9 °F 69% 29.92 in 10.0 mi SSE 3.5 mph - N/A   Mostly Cloudy
12:55 PM 81.1 °F 85.0 °F 71.1 °F 71% 29.91 in 10.0 mi South 3.5 mph - N/A   Overcast
1:15 PM 81.1 °F 85.0 °F 70.9 °F 71% 29.91 in 10.0 mi South 8.1 mph - N/A   Overcast
1:35 PM 82.6 °F 87.3 °F 71.6 °F 69% 29.90 in 10.0 mi South 5.8 mph - N/A   Overcast
1:55 PM 82.4 °F 86.5 °F 70.3 °F 67% 29.90 in 10.0 mi South 8.1 mph - N/A   Overcast
2:15 PM 81.9 °F 85.8 °F 70.3 °F 68% 29.90 in 10.0 mi SSW 11.5 mph 16.1 mph N/A   Overcast
2:35 PM 80.8 °F 84.4 °F 70.7 °F 71% 29.89 in 10.0 mi WSW 11.5 mph - N/A   Overcast
2:55 PM 79.9 °F - 69.4 °F 70% 29.89 in 10.0 mi South 5.8 mph - N/A   Mostly Cloudy
3:15 PM 79.0 °F - 69.6 °F 73% 29.89 in 10.0 mi SSW 4.6 mph - N/A   Mostly Cloudy
3:35 PM 81.7 °F 85.4 °F 70.2 °F 68% 29.88 in 10.0 mi SW 5.8 mph - N/A   Mostly Cloudy
3:55 PM 80.2 °F 83.3 °F 69.6 °F 70% 29.87 in 10.0 mi WSW 3.5 mph - N/A   Scattered Clouds
4:15 PM 79.9 °F - 69.6 °F 71% 29.87 in 10.0 mi SSW 3.5 mph - N/A   Scattered Clouds
4:35 PM 80.2 °F 83.6 °F 70.3 °F 72% 29.87 in 10.0 mi Calm Calm - N/A   Mostly Cloudy
4:55 PM 81.1 °F 84.5 °F 69.6 °F 68% 29.87 in 10.0 mi SSE 5.8 mph - N/A   Scattered Clouds
5:15 PM 81.7 °F 85.1 °F 69.3 °F 66% 29.87 in 10.0 mi South 3.5 mph - N/A   Scattered Clouds
5:35 PM 81.9 °F 85.6 °F 69.8 °F 67% 29.87 in 10.0 mi SSW 3.5 mph - N/A   Clear
5:55 PM 81.1 °F 84.9 °F 70.7 °F 70% 29.87 in 10.0 mi Calm Calm - N/A   Clear
6:15 PM 80.2 °F 83.6 °F 70.3 °F 72% 29.87 in 10.0 mi ESE 4.6 mph - N/A   Scattered Clouds
6:35 PM 79.5 °F - 70.5 °F 74% 29.87 in 10.0 mi Calm Calm - N/A   Clear
6:55 PM 77.5 °F - 71.1 °F 80% 29.88 in 10.0 mi Calm Calm - N/A   Clear
7:15 PM 76.5 °F - 71.1 °F 83% 29.89 in 10.0 mi Calm Calm - N/A   Clear
7:35 PM 76.3 °F - 70.9 °F 83% 29.89 in 10.0 mi East 4.6 mph - N/A   Clear
7:55 PM 76.1 °F - 71.1 °F 84% 29.89 in 10.0 mi East 3.5 mph - N/A   Clear
8:15 PM 75.7 °F - 71.6 °F 87% 29.89 in 10.0 mi Calm Calm - N/A   Clear
8:35 PM 75.2 °F - 71.6 °F 89% 29.90 in 10.0 mi Calm Calm - N/A   Clear
8:55 PM 75.2 °F - 71.6 °F 89% 29.91 in 10.0 mi East 3.5 mph - N/A   Scattered Clouds
9:15 PM 75.0 °F - 71.2 °F 88% 29.91 in 10.0 mi SE 4.6 mph - N/A   Scattered Clouds
9:35 PM 74.8 °F - 70.7 °F 87% 29.91 in 10.0 mi SE 3.5 mph - N/A   Clear
9:55 PM 74.8 °F - 70.7 °F 87% 29.92 in 10.0 mi Calm Calm - N/A   Clear
10:15 PM 74.5 °F - 70.2 °F 86% 29.92 in 10.0 mi SE 3.5 mph - N/A   Clear
10:35 PM 73.9 °F - 70.2 °F 88% 29.92 in 10.0 mi ESE 4.6 mph - N/A   Clear
10:55 PM 73.8 °F - 70.0 °F 88% 29.92 in 10.0 mi SE 3.5 mph - N/A   Clear
11:15 PM 73.6 °F - 69.8 °F 88% 29.91 in 10.0 mi SE 3.5 mph - N/A   Clear
11:35 PM 73.4 °F - 69.8 °F 88% 29.91 in 10.0 mi SE 4.6 mph - N/A   Clear
11:55 PM 73.0 °F - 69.8 °F 90% 29.91 in 10.0 mi SSE 3.5 mph - N/A   Clear